Time,TemperatureF,DewpointF,PressureIn,WindDirection,WindDirectionDegrees,WindSpeedMPH,WindSpeedGustMPH,Humidity,HourlyPrecipIn,Conditions,Clouds,dailyrainin,SoftwareType,DateUTC
2013-07-08 00:03:00,68.8,57.7,29.74,SSE,152,0.0,2.0,68,0.00,,,0.00,HR-IXPWINDi_r2_v1.2.,2013-07-08 06:03:00,
2013-07-08 00:08:00,68.5,58.3,29.74,NE,39,2.0,2.0,70,0.00,,,0.00,HR-IXPWINDi_r2_v1.2.,2013-07-08 06:08:00,
2013-07-08 00:13:00,68.3,59.2,29.74,NNE,30,2.0,3.0,73,0.00,,,0.00,HR-IXPWINDi_r2_v1.2.,2013-07-08 06:13:00,
2013-07-08 00:18:00,67.9,58.9,29.74,NE,49,1.0,3.0,73,0.00,,,0.00,HR-IXPWINDi_r2_v1.2.,2013-07-08 06:18:00,
2013-07-08 00:23:00,67.6,59.0,29.74,NNE,30,2.0,2.0,74,0.00,,,0.00,HR-IXPWINDi_r2_v1.2.,2013-07-08 06:23:00,
2013-07-08 00:29:00,67.3,59.0,29.74,NE,37,3.0,4.0,75,0.00,,,0.00,HR-IXPWINDi_r2_v1.2.,2013-07-08 06:29:00,
2013-07-08 00:34:00,67.2,58.6,29.74,ENE,71,1.0,4.0,74,0.00,,,0.00,HR-IXPWINDi_r2_v1.2.,2013-07-08 06:34:00,
2013-07-08 00:39:00,67.1,58.5,29.74,East,81,3.0,4.0,74,0.00,,,0.00,HR-IXPWINDi_r2_v1.2.,2013-07-08 06:39:00,
2013-07-08 00:44:00,67.1,58.1,29.74,ENE,73,1.0,4.0,73,0.00,,,0.00,HR-IXPWINDi_r2_v1.2.,2013-07-08 06:44:00,
2013-07-08 00:49:00,67.1,58.5,29.74,ENE,60,2.0,4.0,74,0.00,,,0.00,HR-IXPWINDi_r2_v1.2.,2013-07-08 06:49:00,
2013-07-08 00:54:00,67.0,58.4,29.75,ESE,113,1.0,4.0,74,0.00,,,0.00,HR-IXPWINDi_r2_v1.2.,2013-07-08 06:54:00,
2013-07-08 00:59:00,66.9,58.3,29.74,East,99,1.0,4.0,74,0.00,,,0.00,HR-IXPWINDi_r2_v1.2.,2013-07-08 06:59:00,
2013-07-08 01:04:00,66.8,57.8,29.75,ENE,72,1.0,4.0,73,0.00,,,0.00,HR-IXPWINDi_r2_v1.2.,2013-07-08 07:04:00,
2013-07-08 01:10:00,66.7,58.1,29.75,ENE,71,0.0,2.0,74,0.00,,,0.00,HR-IXPWINDi_r2_v1.2.,2013-07-08 07:10:00,
2013-07-08 01:15:00,66.4,57.8,29.75,East,96,1.0,2.0,74,0.00,,,0.00,HR-IXPWINDi_r2_v1.2.,2013-07-08 07:15:00,
2013-07-08 01:20:00,66.3,58.1,29.75,ENE,78,1.0,3.0,75,0.00,,,0.00,HR-IXPWINDi_r2_v1.2.,2013-07-08 07:20:00,
2013-07-08 01:25:00,66.4,58.2,29.75,East,99,1.0,4.0,75,0.00,,,0.00,HR-IXPWINDi_r2_v1.2.,2013-07-08 07:25:00,
2013-07-08 01:31:00,66.4,58.2,29.75,ENE,58,4.0,5.0,75,0.00,,,0.00,HR-IXPWINDi_r2_v1.2.,2013-07-08 07:31:00,
2013-07-08 01:36:00,66.5,58.3,29.75,ENE,65,4.0,5.0,75,0.00,,,0.00,HR-IXPWINDi_r2_v1.2.,2013-07-08 07:36:00,
2013-07-08 01:41:00,66.5,58.3,29.75,ESE,113,0.0,5.0,75,0.00,,,0.00,HR-IXPWINDi_r2_v1.2.,2013-07-08 07:41:00,
2013-07-08 01:46:00,66.3,58.1,29.76,ESE,113,0.0,4.0,75,0.00,,,0.00,HR-IXPWINDi_r2_v1.2.,2013-07-08 07:46:00,
2013-07-08 01:52:00,66.2,58.3,29.76,West,279,1.0,3.0,76,0.00,,,0.00,HR-IXPWINDi_r2_v1.2.,2013-07-08 07:52:00,
2013-07-08 01:57:00,65.8,58.3,29.76,NW,304,2.0,3.0,77,0.00,,,0.00,HR-IXPWINDi_r2_v1.2.,2013-07-08 07:57:00,
2013-07-08 02:02:00,65.2,58.1,29.77,North,352,0.0,3.0,78,0.00,,,0.00,HR-IXPWINDi_r2_v1.2.,2013-07-08 08:02:00,
2013-07-08 02:07:00,64.9,58.2,29.76,NNW,348,0.0,2.0,79,0.00,,,0.00,HR-IXPWINDi_r2_v1.2.,2013-07-08 08:07:00,
2013-07-08 02:12:00,64.5,58.1,29.76,NNW,348,0.0,1.0,80,0.00,,,0.00,HR-IXPWINDi_r2_v1.2.,2013-07-08 08:12:00,
2013-07-08 02:17:00,64.2,58.2,29.76,NNW,348,0.0,1.0,81,0.00,,,0.00,HR-IXPWINDi_r2_v1.2.,2013-07-08 08:17:00,
2013-07-08 02:22:00,64.0,58.3,29.77,West,277,1.0,2.0,82,0.00,,,0.00,HR-IXPWINDi_r2_v1.2.,2013-07-08 08:22:00,
2013-07-08 02:28:00,63.7,58.0,29.77,North,354,1.0,2.0,82,0.00,,,0.00,HR-IXPWINDi_r2_v1.2.,2013-07-08 08:28:00,
2013-07-08 02:33:00,63.4,58.1,29.77,West,278,1.0,2.0,83,0.00,,,0.00,HR-IXPWINDi_r2_v1.2.,2013-07-08 08:33:00,
2013-07-08 02:38:00,63.2,57.9,29.77,WNW,294,0.0,2.0,83,0.00,,,0.00,HR-IXPWINDi_r2_v1.2.,2013-07-08 08:38:00,
2013-07-08 02:43:00,63.2,58.2,29.77,WNW,294,0.0,1.0,84,0.00,,,0.00,HR-IXPWINDi_r2_v1.2.,2013-07-08 08:43:00,
2013-07-08 02:48:00,63.0,58.0,29.77,WNW,294,0.0,1.0,84,0.00,,,0.00,HR-IXPWINDi_r2_v1.2.,2013-07-08 08:48:00,
2013-07-08 02:53:00,62.9,58.3,29.77,WNW,294,0.0,1.0,85,0.00,,,0.00,HR-IXPWINDi_r2_v1.2.,2013-07-08 08:53:00,
2013-07-08 02:58:00,62.7,58.1,29.77,WNW,294,1.0,1.0,85,0.00,,,0.00,HR-IXPWINDi_r2_v1.2.,2013-07-08 08:58:00,
2013-07-08 03:04:00,62.5,58.2,29.77,WNW,294,0.0,1.0,86,0.00,,,0.00,HR-IXPWINDi_r2_v1.2.,2013-07-08 09:04:00,
2013-07-08 03:09:00,62.4,58.4,29.77,WNW,294,0.0,1.0,87,0.00,,,0.00,HR-IXPWINDi_r2_v1.2.,2013-07-08 09:09:00,
2013-07-08 03:14:00,62.4,58.4,29.77,WNW,294,0.0,1.0,87,0.00,,,0.00,HR-IXPWINDi_r2_v1.2.,2013-07-08 09:14:00,
2013-07-08 03:19:00,62.2,58.2,29.77,WNW,292,0.0,0.0,87,0.00,,,0.00,HR-IXPWINDi_r2_v1.2.,2013-07-08 09:19:00,
2013-07-08 03:24:00,62.3,58.6,29.77,SW,226,0.0,0.0,88,0.00,,,0.00,HR-IXPWINDi_r2_v1.2.,2013-07-08 09:24:00,
2013-07-08 03:30:00,62.3,58.3,29.77,SW,229,0.0,0.0,87,0.00,,,0.00,HR-IXPWINDi_r2_v1.2.,2013-07-08 09:30:00,
2013-07-08 03:35:00,62.2,58.2,29.77,SW,229,0.0,0.0,87,0.00,,,0.00,HR-IXPWINDi_r2_v1.2.,2013-07-08 09:35:00,
2013-07-08 03:40:00,62.0,58.3,29.77,SW,229,0.0,0.0,88,0.00,,,0.00,HR-IXPWINDi_r2_v1.2.,2013-07-08 09:40:00,
2013-07-08 03:45:00,61.9,58.2,29.77,SW,229,0.0,0.0,88,0.00,,,0.00,HR-IXPWINDi_r2_v1.2.,2013-07-08 09:45:00,
2013-07-08 03:51:00,62.0,58.7,29.77,North,352,0.0,0.0,89,0.00,,,0.00,HR-IXPWINDi_r2_v1.2.,2013-07-08 09:51:00,
2013-07-08 03:56:00,62.1,58.4,29.78,North,351,0.0,0.0,88,0.00,,,0.00,HR-IXPWINDi_r2_v1.2.,2013-07-08 09:56:00,
2013-07-08 04:01:00,62.2,58.5,29.78,North,351,0.0,0.0,88,0.00,,,0.00,HR-IXPWINDi_r2_v1.2.,2013-07-08 10:01:00,
2013-07-08 04:06:00,62.1,58.4,29.78,NNW,348,0.0,0.0,88,0.00,,,0.00,HR-IXPWINDi_r2_v1.2.,2013-07-08 10:06:00,
2013-07-08 04:12:00,61.9,58.2,29.78,NW,316,1.0,3.0,88,0.00,,,0.00,HR-IXPWINDi_r2_v1.2.,2013-07-08 10:12:00,
2013-07-08 04:17:00,61.7,58.0,29.78,NW,309,1.0,3.0,88,0.00,,,0.00,HR-IXPWINDi_r2_v1.2.,2013-07-08 10:17:00,
2013-07-08 04:22:00,61.6,57.9,29.79,NW,309,0.0,2.0,88,0.00,,,0.00,HR-IXPWINDi_r2_v1.2.,2013-07-08 10:22:00,
2013-07-08 04:27:00,61.4,57.4,29.79,WNW,301,1.0,2.0,87,0.00,,,0.00,HR-IXPWINDi_r2_v1.2.,2013-07-08 10:27:00,
2013-07-08 04:32:00,61.3,57.6,29.79,WNW,297,0.0,1.0,88,0.00,,,0.00,HR-IXPWINDi_r2_v1.2.,2013-07-08 10:32:00,
2013-07-08 04:37:00,61.2,57.5,29.79,WNW,297,0.0,1.0,88,0.00,,,0.00,HR-IXPWINDi_r2_v1.2.,2013-07-08 10:37:00,
2013-07-08 04:43:00,61.1,57.5,29.79,NNE,12,0.0,0.0,88,0.00,,,0.00,HR-IXPWINDi_r2_v1.2.,2013-07-08 10:43:00,
2013-07-08 04:48:00,61.1,57.5,29.79,NNE,32,0.0,0.0,88,0.00,,,0.00,HR-IXPWINDi_r2_v1.2.,2013-07-08 10:48:00,
2013-07-08 04:53:00,61.1,57.5,29.79,NNE,33,0.0,0.0,88,0.00,,,0.00,HR-IXPWINDi_r2_v1.2.,2013-07-08 10:53:00,
2013-07-08 04:58:00,61.1,57.5,29.80,NNE,32,0.0,0.0,88,0.00,,,0.00,HR-IXPWINDi_r2_v1.2.,2013-07-08 10:58:00,
2013-07-08 05:03:00,60.9,57.3,29.80,NNE,30,0.0,0.0,88,0.00,,,0.00,HR-IXPWINDi_r2_v1.2.,2013-07-08 11:03:00,
2013-07-08 05:08:00,60.8,57.5,29.80,NNE,30,0.0,0.0,89,0.00,,,0.00,HR-IXPWINDi_r2_v1.2.,2013-07-08 11:08:00,
2013-07-08 05:14:00,60.9,57.6,29.80,NNE,32,0.0,0.0,89,0.00,,,0.00,HR-IXPWINDi_r2_v1.2.,2013-07-08 11:14:00,
2013-07-08 05:19:00,60.9,57.6,29.80,NE,49,0.0,0.0,89,0.00,,,0.00,HR-IXPWINDi_r2_v1.2.,2013-07-08 11:19:00,
2013-07-08 05:24:00,61.0,57.7,29.79,NE,53,0.0,0.0,89,0.00,,,0.00,HR-IXPWINDi_r2_v1.2.,2013-07-08 11:24:00,
2013-07-08 05:29:00,61.1,57.8,29.80,East,84,0.0,2.0,89,0.00,,,0.00,HR-IXPWINDi_r2_v1.2.,2013-07-08 11:29:00,
2013-07-08 05:34:00,61.0,57.7,29.80,East,81,0.0,2.0,89,0.00,,,0.00,HR-IXPWINDi_r2_v1.2.,2013-07-08 11:34:00,
2013-07-08 05:39:00,60.9,57.6,29.80,East,82,0.0,2.0,89,0.00,,,0.00,HR-IXPWINDi_r2_v1.2.,2013-07-08 11:39:00,
2013-07-08 05:45:00,60.6,57.3,29.80,East,82,0.0,1.0,89,0.00,,,0.00,HR-IXPWINDi_r2_v1.2.,2013-07-08 11:45:00,
2013-07-08 05:50:00,60.4,57.1,29.80,East,82,0.0,1.0,89,0.00,,,0.00,HR-IXPWINDi_r2_v1.2.,2013-07-08 11:50:00,
2013-07-08 05:55:00,60.2,56.9,29.80,East,92,0.0,1.0,89,0.00,,,0.00,HR-IXPWINDi_r2_v1.2.,2013-07-08 11:55:00,
2013-07-08 06:00:00,60.2,57.2,29.80,East,91,0.0,1.0,90,0.00,,,0.00,HR-IXPWINDi_r2_v1.2.,2013-07-08 12:00:00,
2013-07-08 06:05:00,60.1,56.8,29.81,East,91,0.0,1.0,89,0.00,,,0.00,HR-IXPWINDi_r2_v1.2.,2013-07-08 12:05:00,
2013-07-08 06:11:00,60.3,57.3,29.81,NW,311,2.0,2.0,90,0.00,,,0.00,HR-IXPWINDi_r2_v1.2.,2013-07-08 12:11:00,
2013-07-08 06:16:00,60.6,57.3,29.81,North,352,0.0,2.0,89,0.00,,,0.00,HR-IXPWINDi_r2_v1.2.,2013-07-08 12:16:00,
2013-07-08 06:21:00,60.6,57.0,29.81,NNW,346,1.0,3.0,88,0.00,,,0.00,HR-IXPWINDi_r2_v1.2.,2013-07-08 12:21:00,
2013-07-08 06:27:00,60.4,56.8,29.81,North,8,0.0,3.0,88,0.00,,,0.00,HR-IXPWINDi_r2_v1.2.,2013-07-08 12:27:00,
2013-07-08 06:32:00,60.3,56.7,29.81,North,6,0.0,2.0,88,0.00,,,0.00,HR-IXPWINDi_r2_v1.2.,2013-07-08 12:32:00,
2013-07-08 06:37:00,60.2,56.6,29.81,North,6,0.0,1.0,88,0.00,,,0.00,HR-IXPWINDi_r2_v1.2.,2013-07-08 12:37:00,
2013-07-08 06:42:00,60.3,57.0,29.81,North,6,0.0,0.0,89,0.00,,,0.00,HR-IXPWINDi_r2_v1.2.,2013-07-08 12:42:00,
2013-07-08 06:47:00,60.8,57.5,29.81,WNW,290,0.0,0.0,89,0.00,,,0.00,HR-IXPWINDi_r2_v1.2.,2013-07-08 12:47:00,
2013-07-08 06:52:00,61.6,57.6,29.82,West,274,2.0,3.0,87,0.00,,,0.00,HR-IXPWINDi_r2_v1.2.,2013-07-08 12:52:00,
2013-07-08 06:57:00,61.8,57.2,29.82,WNW,297,3.0,4.0,85,0.00,,,0.00,HR-IXPWINDi_r2_v1.2.,2013-07-08 12:57:00,
2013-07-08 07:03:00,61.9,57.6,29.82,WNW,290,2.0,5.0,86,0.00,,,0.00,HR-IXPWINDi_r2_v1.2.,2013-07-08 13:03:00,
2013-07-08 07:08:00,62.0,57.7,29.83,WNW,288,2.0,5.0,86,0.00,,,0.00,HR-IXPWINDi_r2_v1.2.,2013-07-08 13:08:00,
2013-07-08 07:13:00,62.4,57.8,29.83,WNW,297,1.0,4.0,85,0.00,,,0.00,HR-IXPWINDi_r2_v1.2.,2013-07-08 13:13:00,
2013-07-08 07:18:00,62.8,57.8,29.83,WNW,296,2.0,3.0,84,0.00,,,0.00,HR-IXPWINDi_r2_v1.2.,2013-07-08 13:18:00,
2013-07-08 07:24:00,63.0,57.7,29.83,NW,315,2.0,3.0,83,0.00,,,0.00,HR-IXPWINDi_r2_v1.2.,2013-07-08 13:24:00,
2013-07-08 07:29:00,63.1,57.8,29.84,WSW,257,3.0,3.0,83,0.00,,,0.00,HR-IXPWINDi_r2_v1.2.,2013-07-08 13:29:00,
2013-07-08 07:34:00,63.2,57.5,29.84,West,276,2.0,3.0,82,0.00,,,0.00,HR-IXPWINDi_r2_v1.2.,2013-07-08 13:34:00,
2013-07-08 07:39:00,63.7,58.0,29.84,West,269,1.0,3.0,82,0.00,,,0.00,HR-IXPWINDi_r2_v1.2.,2013-07-08 13:39:00,
2013-07-08 07:44:00,64.3,58.3,29.84,WNW,285,2.0,3.0,81,0.00,,,0.00,HR-IXPWINDi_r2_v1.2.,2013-07-08 13:44:00,
2013-07-08 07:50:00,65.1,58.7,29.84,NNE,15,0.0,3.0,80,0.00,,,0.00,HR-IXPWINDi_r2_v1.2.,2013-07-08 13:50:00,
2013-07-08 07:55:00,66.6,59.1,29.84,NNE,15,1.0,2.0,77,0.00,,,0.00,HR-IXPWINDi_r2_v1.2.,2013-07-08 13:55:00,
2013-07-08 08:00:00,67.9,59.2,29.85,East,82,0.0,1.0,74,0.00,,,0.00,HR-IXPWINDi_r2_v1.2.,2013-07-08 14:00:00,
2013-07-08 08:05:00,69.1,59.6,29.85,SSE,150,0.0,1.0,72,0.00,,,0.00,HR-IXPWINDi_r2_v1.2.,2013-07-08 14:05:00,
2013-07-08 08:11:00,70.4,59.7,29.85,SE,145,0.0,1.0,69,0.00,,,0.00,HR-IXPWINDi_r2_v1.2.,2013-07-08 14:11:00,
2013-07-08 08:16:00,71.8,59.8,29.85,SE,145,0.0,1.0,66,0.00,,,0.00,HR-IXPWINDi_r2_v1.2.,2013-07-08 14:16:00,
2013-07-08 08:21:00,72.7,59.3,29.85,SSE,149,1.0,3.0,63,0.00,,,0.00,HR-IXPWINDi_r2_v1.2.,2013-07-08 14:21:00,
2013-07-08 08:26:00,72.8,59.9,29.85,ENE,75,1.0,3.0,64,0.00,,,0.00,HR-IXPWINDi_r2_v1.2.,2013-07-08 14:26:00,
2013-07-08 08:32:00,73.1,59.3,29.85,NE,47,4.0,4.0,62,0.00,,,0.00,HR-IXPWINDi_r2_v1.2.,2013-07-08 14:32:00,
2013-07-08 08:37:00,72.8,59.4,29.85,East,99,1.0,4.0,63,0.00,,,0.00,HR-IXPWINDi_r2_v1.2.,2013-07-08 14:37:00,
2013-07-08 08:42:00,73.0,59.2,29.85,ESE,105,1.0,4.0,62,0.00,,,0.00,HR-IXPWINDi_r2_v1.2.,2013-07-08 14:42:00,
2013-07-08 08:47:00,73.3,58.5,29.85,ESE,119,0.0,4.0,60,0.00,,,0.00,HR-IXPWINDi_r2_v1.2.,2013-07-08 14:47:00,
2013-07-08 08:52:00,74.0,58.7,29.85,ESE,106,0.0,4.0,59,0.00,,,0.00,HR-IXPWINDi_r2_v1.2.,2013-07-08 14:52:00,
2013-07-08 08:57:00,74.1,58.3,29.85,East,101,1.0,4.0,58,0.00,,,0.00,HR-IXPWINDi_r2_v1.2.,2013-07-08 14:57:00,
2013-07-08 09:03:00,74.1,57.8,29.85,East,82,4.0,6.0,57,0.00,,,0.00,HR-IXPWINDi_r2_v1.2.,2013-07-08 15:03:00,
2013-07-08 09:08:00,74.4,57.1,29.85,SE,124,1.0,6.0,55,0.00,,,0.00,HR-IXPWINDi_r2_v1.2.,2013-07-08 15:08:00,
2013-07-08 09:13:00,75.2,57.4,29.85,East,92,1.0,5.0,54,0.00,,,0.00,HR-IXPWINDi_r2_v1.2.,2013-07-08 15:13:00,
2013-07-08 09:18:00,75.7,58.3,29.85,SE,145,2.0,3.0,55,0.00,,,0.00,HR-IXPWINDi_r2_v1.2.,2013-07-08 15:18:00,
2013-07-08 09:24:00,76.6,57.1,29.85,ENE,64,3.0,5.0,51,0.00,,,0.00,HR-IXPWINDi_r2_v1.2.,2013-07-08 15:24:00,
2013-07-08 09:29:00,77.1,57.5,29.85,SE,125,1.0,5.0,51,0.00,,,0.00,HR-IXPWINDi_r2_v1.2.,2013-07-08 15:29:00,
2013-07-08 09:34:00,77.3,56.6,29.85,ESE,103,2.0,5.0,49,0.00,,,0.00,HR-IXPWINDi_r2_v1.2.,2013-07-08 15:34:00,
2013-07-08 09:39:00,77.2,55.9,29.85,ESE,103,3.0,7.0,48,0.00,,,0.00,HR-IXPWINDi_r2_v1.2.,2013-07-08 15:39:00,
2013-07-08 09:45:00,77.5,54.4,29.85,SE,125,2.0,7.0,45,0.00,,,0.00,HR-IXPWINDi_r2_v1.2.,2013-07-08 15:45:00,
2013-07-08 09:50:00,77.9,55.4,29.85,SE,128,3.0,6.0,46,0.00,,,0.00,HR-IXPWINDi_r2_v1.2.,2013-07-08 15:50:00,
2013-07-08 09:55:00,78.1,55.0,29.85,SE,128,1.0,9.0,45,0.00,,,0.00,HR-IXPWINDi_r2_v1.2.,2013-07-08 15:55:00,
2013-07-08 10:00:00,78.3,54.6,29.85,SE,128,3.0,9.0,44,0.00,,,0.00,HR-IXPWINDi_r2_v1.2.,2013-07-08 16:00:00,
2013-07-08 10:06:00,78.3,55.8,29.85,East,84,3.0,7.0,46,0.00,,,0.00,HR-IXPWINDi_r2_v1.2.,2013-07-08 16:06:00,
2013-07-08 10:11:00,78.8,55.6,29.85,ENE,71,6.0,8.0,45,0.00,,,0.00,HR-IXPWINDi_r2_v1.2.,2013-07-08 16:11:00,
2013-07-08 10:16:00,79.0,57.0,29.84,ESE,114,2.0,8.0,47,0.00,,,0.00,HR-IXPWINDi_r2_v1.2.,2013-07-08 16:16:00,
2013-07-08 10:21:00,79.7,56.4,29.84,ENE,63,6.0,6.0,45,0.00,,,0.00,HR-IXPWINDi_r2_v1.2.,2013-07-08 16:21:00,
2013-07-08 10:26:00,79.8,56.5,29.84,SW,215,4.0,8.0,45,0.00,,,0.00,HR-IXPWINDi_r2_v1.2.,2013-07-08 16:26:00,
2013-07-08 10:31:00,80.4,57.1,29.84,ENE,73,5.0,8.0,45,0.00,,,0.00,HR-IXPWINDi_r2_v1.2.,2013-07-08 16:31:00,
2013-07-08 10:36:00,81.0,55.7,29.84,South,187,2.0,5.0,42,0.00,,,0.00,HR-IXPWINDi_r2_v1.2.,2013-07-08 16:36:00,
2013-07-08 10:41:00,81.2,55.9,29.84,SE,145,3.0,6.0,42,0.00,,,0.00,HR-IXPWINDi_r2_v1.2.,2013-07-08 16:41:00,
2013-07-08 10:47:00,81.4,55.4,29.84,SE,142,0.0,6.0,41,0.00,,,0.00,HR-IXPWINDi_r2_v1.2.,2013-07-08 16:47:00,
2013-07-08 10:52:00,81.8,56.4,29.84,SSW,205,2.0,5.0,42,0.00,,,0.00,HR-IXPWINDi_r2_v1.2.,2013-07-08 16:52:00,
2013-07-08 10:57:00,82.0,54.6,29.84,ESE,122,2.0,5.0,39,0.00,,,0.00,HR-IXPWINDi_r2_v1.2.,2013-07-08 16:57:00,
2013-07-08 11:02:00,82.4,55.6,29.84,SSE,166,2.0,5.0,40,0.00,,,0.00,HR-IXPWINDi_r2_v1.2.,2013-07-08 17:02:00,
2013-07-08 11:07:00,83.2,54.9,29.84,NW,307,1.0,3.0,38,0.00,,,0.00,HR-IXPWINDi_r2_v1.2.,2013-07-08 17:07:00,
2013-07-08 11:13:00,83.1,56.2,29.84,East,96,1.0,3.0,40,0.00,,,0.00,HR-IXPWINDi_r2_v1.2.,2013-07-08 17:13:00,
2013-07-08 11:18:00,83.2,56.3,29.84,NE,46,2.0,5.0,40,0.00,,,0.00,HR-IXPWINDi_r2_v1.2.,2013-07-08 17:18:00,
2013-07-08 11:23:00,84.3,56.6,29.84,ENE,67,1.0,5.0,39,0.00,,,0.00,HR-IXPWINDi_r2_v1.2.,2013-07-08 17:23:00,
2013-07-08 11:28:00,85.3,56.0,29.84,ESE,120,1.0,3.0,37,0.00,,,0.00,HR-IXPWINDi_r2_v1.2.,2013-07-08 17:28:00,
2013-07-08 11:34:00,84.5,56.1,29.84,East,101,1.0,4.0,38,0.00,,,0.00,HR-IXPWINDi_r2_v1.2.,2013-07-08 17:34:00,
2013-07-08 11:39:00,84.8,54.1,29.84,NNE,20,2.0,5.0,35,0.00,,,0.00,HR-IXPWINDi_r2_v1.2.,2013-07-08 17:39:00,
2013-07-08 11:44:00,85.2,54.4,29.84,NE,55,3.0,5.0,35,0.00,,,0.00,HR-IXPWINDi_r2_v1.2.,2013-07-08 17:44:00,
2013-07-08 11:49:00,85.0,55.0,29.83,WNW,287,2.0,5.0,36,0.00,,,0.00,HR-IXPWINDi_r2_v1.2.,2013-07-08 17:49:00,
2013-07-08 11:54:00,85.2,53.6,29.83,NW,318,2.0,5.0,34,0.00,,,0.00,HR-IXPWINDi_r2_v1.2.,2013-07-08 17:54:00,
2013-07-08 12:00:00,85.4,53.8,29.83,ENE,71,1.0,6.0,34,0.00,,,0.00,HR-IXPWINDi_r2_v1.2.,2013-07-08 18:00:00,
2013-07-08 12:05:00,86.1,55.2,29.83,WNW,284,4.0,6.0,35,0.00,,,0.00,HR-IXPWINDi_r2_v1.2.,2013-07-08 18:05:00,
2013-07-08 12:11:00,86.3,53.8,29.83,WNW,287,4.0,7.0,33,0.00,,,0.00,HR-IXPWINDi_r2_v1.2.,2013-07-08 18:11:00,
2013-07-08 12:16:00,86.0,54.3,29.82,SSE,162,3.0,7.0,34,0.00,,,0.00,HR-IXPWINDi_r2_v1.2.,2013-07-08 18:16:00,
2013-07-08 12:21:00,86.8,55.0,29.82,SW,232,2.0,6.0,34,0.00,,,0.00,HR-IXPWINDi_r2_v1.2.,2013-07-08 18:21:00,
2013-07-08 12:26:00,87.4,54.7,29.82,SSW,197,3.0,5.0,33,0.00,,,0.00,HR-IXPWINDi_r2_v1.2.,2013-07-08 18:26:00,
2013-07-08 12:31:00,87.0,54.4,29.82,SSW,212,5.0,9.0,33,0.00,,,0.00,HR-IXPWINDi_r2_v1.2.,2013-07-08 18:31:00,
2013-07-08 12:37:00,87.1,53.6,29.81,WNW,283,3.0,9.0,32,0.00,,,0.00,HR-IXPWINDi_r2_v1.2.,2013-07-08 18:37:00,
2013-07-08 12:42:00,87.3,53.8,29.81,West,264,1.0,6.0,32,0.00,,,0.00,HR-IXPWINDi_r2_v1.2.,2013-07-08 18:42:00,
2013-07-08 12:47:00,88.2,52.8,29.81,ESE,108,0.0,5.0,30,0.00,,,0.00,HR-IXPWINDi_r2_v1.2.,2013-07-08 18:47:00,
2013-07-08 12:52:00,88.6,54.1,29.80,West,276,4.0,5.0,31,0.00,,,0.00,HR-IXPWINDi_r2_v1.2.,2013-07-08 18:52:00,
2013-07-08 12:57:00,89.0,53.5,29.80,NE,34,3.0,4.0,30,0.00,,,0.00,HR-IXPWINDi_r2_v1.2.,2013-07-08 18:57:00,
2013-07-08 13:02:00,89.4,52.9,29.80,NNW,343,1.0,4.0,29,0.00,,,0.00,HR-IXPWINDi_r2_v1.2.,2013-07-08 19:02:00,
2013-07-08 13:07:00,89.1,53.6,29.79,North,4,1.0,5.0,30,0.00,,,0.00,HR-IXPWINDi_r2_v1.2.,2013-07-08 19:07:00,
2013-07-08 13:13:00,90.0,54.4,29.79,North,11,1.0,5.0,30,0.00,,,0.00,HR-IXPWINDi_r2_v1.2.,2013-07-08 19:13:00,
2013-07-08 13:18:00,91.1,54.4,29.78,North,6,6.0,6.0,29,0.00,,,0.00,HR-IXPWINDi_r2_v1.2.,2013-07-08 19:18:00,
2013-07-08 13:23:00,91.2,54.5,29.78,ENE,64,6.0,9.0,29,0.00,,,0.00,HR-IXPWINDi_r2_v1.2.,2013-07-08 19:23:00,
2013-07-08 13:28:00,90.6,52.0,29.78,NNE,33,4.0,10.0,27,0.00,,,0.00,HR-IXPWINDi_r2_v1.2.,2013-07-08 19:28:00,
2013-07-08 13:33:00,90.4,53.8,29.78,NE,56,3.0,10.0,29,0.00,,,0.00,HR-IXPWINDi_r2_v1.2.,2013-07-08 19:33:00,
2013-07-08 13:38:00,91.4,51.7,29.77,North,6,3.0,9.0,26,0.00,,,0.00,HR-IXPWINDi_r2_v1.2.,2013-07-08 19:38:00,
2013-07-08 13:44:00,92.0,51.1,29.77,NNE,18,3.0,7.0,25,0.00,,,0.00,HR-IXPWINDi_r2_v1.2.,2013-07-08 19:44:00,
2013-07-08 13:49:00,92.1,50.1,29.77,SE,127,1.0,7.0,24,0.00,,,0.00,HR-IXPWINDi_r2_v1.2.,2013-07-08 19:49:00,
2013-07-08 13:54:00,93.0,49.7,29.77,WNW,291,6.0,8.0,23,0.00,,,0.00,HR-IXPWINDi_r2_v1.2.,2013-07-08 19:54:00,
2013-07-08 13:59:00,94.3,44.3,29.77,SW,224,12.0,12.0,18,0.00,,,0.00,HR-IXPWINDi_r2_v1.2.,2013-07-08 19:59:00,
2013-07-08 14:05:00,94.9,44.8,29.77,WNW,297,6.0,12.0,18,0.00,,,0.00,HR-IXPWINDi_r2_v1.2.,2013-07-08 20:05:00,
2013-07-08 14:10:00,95.4,42.1,29.76,SSW,198,6.0,13.0,16,0.00,,,0.00,HR-IXPWINDi_r2_v1.2.,2013-07-08 20:10:00,
2013-07-08 14:15:00,94.8,41.6,29.76,West,281,2.0,16.0,16,0.00,,,0.00,HR-IXPWINDi_r2_v1.2.,2013-07-08 20:15:00,
2013-07-08 14:20:00,94.7,44.6,29.76,West,270,3.0,16.0,18,0.00,,,0.00,HR-IXPWINDi_r2_v1.2.,2013-07-08 20:20:00,
2013-07-08 14:25:00,95.3,36.7,29.76,SSW,208,7.0,19.0,13,0.00,,,0.00,HR-IXPWINDi_r2_v1.2.,2013-07-08 20:25:00,
2013-07-08 14:31:00,95.2,40.3,29.76,West,278,15.0,19.0,15,0.00,,,0.00,HR-IXPWINDi_r2_v1.2.,2013-07-08 20:31:00,
2013-07-08 14:36:00,95.7,42.3,29.76,West,277,6.0,16.0,16,0.00,,,0.00,HR-IXPWINDi_r2_v1.2.,2013-07-08 20:36:00,
2013-07-08 14:41:00,95.8,32.9,29.75,SW,217,13.0,17.0,11,0.00,,,0.00,HR-IXPWINDi_r2_v1.2.,2013-07-08 20:41:00,
2013-07-08 14:46:00,96.1,37.3,29.75,SW,219,18.0,19.0,13,0.00,,,0.00,HR-IXPWINDi_r2_v1.2.,2013-07-08 20:46:00,
2013-07-08 14:52:00,96.1,39.2,29.75,SW,226,6.0,19.0,14,0.00,,,0.00,HR-IXPWINDi_r2_v1.2.,2013-07-08 20:52:00,
2013-07-08 14:57:00,96.7,37.8,29.75,SW,224,8.0,19.0,13,0.00,,,0.00,HR-IXPWINDi_r2_v1.2.,2013-07-08 20:57:00,
2013-07-08 15:02:00,96.7,37.8,29.74,SW,231,13.0,15.0,13,0.00,,,0.00,HR-IXPWINDi_r2_v1.2.,2013-07-08 21:02:00,
2013-07-08 15:07:00,96.6,37.7,29.74,SW,228,8.0,16.0,13,0.00,,,0.00,HR-IXPWINDi_r2_v1.2.,2013-07-08 21:07:00,
2013-07-08 15:12:00,97.1,33.9,29.74,WNW,287,17.0,17.0,11,0.00,,,0.00,HR-IXPWINDi_r2_v1.2.,2013-07-08 21:12:00,
2013-07-08 15:17:00,96.6,37.7,29.74,WSW,238,9.0,17.0,13,0.00,,,0.00,HR-IXPWINDi_r2_v1.2.,2013-07-08 21:17:00,
2013-07-08 15:22:00,96.7,37.8,29.74,SW,226,5.0,17.0,13,0.00,,,0.00,HR-IXPWINDi_r2_v1.2.,2013-07-08 21:22:00,
2013-07-08 15:27:00,97.1,38.1,29.74,WNW,303,5.0,18.0,13,0.00,,,0.00,HR-IXPWINDi_r2_v1.2.,2013-07-08 21:27:00,
2013-07-08 15:32:00,97.2,38.2,29.74,WSW,238,11.0,18.0,13,0.00,,,0.00,HR-IXPWINDi_r2_v1.2.,2013-07-08 21:32:00,
2013-07-08 15:37:00,96.1,37.3,29.74,WNW,290,8.0,18.0,13,0.00,,,0.00,HR-IXPWINDi_r2_v1.2.,2013-07-08 21:37:00,
2013-07-08 15:42:00,96.0,39.1,29.73,NW,305,9.0,17.0,14,0.00,,,0.00,HR-IXPWINDi_r2_v1.2.,2013-07-08 21:42:00,
2013-07-08 15:48:00,96.7,35.8,29.73,SSW,195,3.0,18.0,12,0.00,,,0.00,HR-IXPWINDi_r2_v1.2.,2013-07-08 21:48:00,
2013-07-08 15:53:00,96.6,35.7,29.73,West,277,3.0,18.0,12,0.00,,,0.00,HR-IXPWINDi_r2_v1.2.,2013-07-08 21:53:00,
2013-07-08 15:58:00,96.4,35.5,29.73,WNW,290,6.0,16.0,12,0.00,,,0.00,HR-IXPWINDi_r2_v1.2.,2013-07-08 21:58:00,
2013-07-08 16:03:00,96.4,37.6,29.72,SSW,195,3.0,16.0,13,0.00,,,0.00,HR-IXPWINDi_r2_v1.2.,2013-07-08 22:03:00,
2013-07-08 16:08:00,96.2,33.2,29.73,WNW,294,6.0,18.0,11,0.00,,,0.00,HR-IXPWINDi_r2_v1.2.,2013-07-08 22:08:00,
2013-07-08 16:14:00,96.8,37.9,29.72,West,276,2.0,18.0,13,0.00,,,0.00,HR-IXPWINDi_r2_v1.2.,2013-07-08 22:14:00,
2013-07-08 16:19:00,97.2,36.2,29.72,South,190,5.0,13.0,12,0.00,,,0.00,HR-IXPWINDi_r2_v1.2.,2013-07-08 22:19:00,
2013-07-08 16:24:00,97.7,36.5,29.72,WSW,257,2.0,12.0,12,0.00,,,0.00,HR-IXPWINDi_r2_v1.2.,2013-07-08 22:24:00,
2013-07-08 16:29:00,97.9,36.7,29.71,South,174,3.0,10.0,12,0.00,,,0.00,HR-IXPWINDi_r2_v1.2.,2013-07-08 22:29:00,
2013-07-08 16:34:00,97.4,36.3,29.71,WNW,297,8.0,13.0,12,0.00,,,0.00,HR-IXPWINDi_r2_v1.2.,2013-07-08 22:34:00,
2013-07-08 16:39:00,97.1,38.1,29.71,WNW,283,5.0,16.0,13,0.00,,,0.00,HR-IXPWINDi_r2_v1.2.,2013-07-08 22:39:00,
2013-07-08 16:44:00,97.0,36.0,29.71,SW,229,3.0,16.0,12,0.00,,,0.00,HR-IXPWINDi_r2_v1.2.,2013-07-08 22:44:00,
2013-07-08 16:49:00,97.7,36.5,29.71,WSW,254,9.0,14.0,12,0.00,,,0.00,HR-IXPWINDi_r2_v1.2.,2013-07-08 22:49:00,
2013-07-08 16:54:00,97.4,36.3,29.71,SW,228,11.0,19.0,12,0.00,,,0.00,HR-IXPWINDi_r2_v1.2.,2013-07-08 22:54:00,
2013-07-08 17:00:00,97.6,34.3,29.70,West,271,10.0,19.0,11,0.00,,,0.00,HR-IXPWINDi_r2_v1.2.,2013-07-08 23:00:00,
2013-07-08 17:05:00,98.1,34.7,29.71,West,281,5.0,15.0,11,0.00,,,0.00,HR-IXPWINDi_r2_v1.2.,2013-07-08 23:05:00,
2013-07-08 17:10:00,98.0,36.8,29.70,SW,217,7.0,13.0,12,0.00,,,0.00,HR-IXPWINDi_r2_v1.2.,2013-07-08 23:10:00,
2013-07-08 17:15:00,97.9,34.5,29.70,SW,226,4.0,18.0,11,0.00,,,0.00,HR-IXPWINDi_r2_v1.2.,2013-07-08 23:15:00,
2013-07-08 17:20:00,98.4,34.9,29.70,SW,228,2.0,18.0,11,0.00,,,0.00,HR-IXPWINDi_r2_v1.2.,2013-07-08 23:20:00,
2013-07-08 17:26:00,98.4,34.9,29.70,WNW,288,7.0,12.0,11,0.00,,,0.00,HR-IXPWINDi_r2_v1.2.,2013-07-08 23:26:00,
2013-07-08 17:31:00,98.2,34.7,29.70,WSW,248,16.0,16.0,11,0.00,,,0.00,HR-IXPWINDi_r2_v1.2.,2013-07-08 23:31:00,
2013-07-08 17:36:00,97.7,32.0,29.70,SW,218,10.0,18.0,10,0.00,,,0.00,HR-IXPWINDi_r2_v1.2.,2013-07-08 23:36:00,
2013-07-08 17:41:00,97.8,34.4,29.70,SW,228,3.0,18.0,11,0.00,,,0.00,HR-IXPWINDi_r2_v1.2.,2013-07-08 23:41:00,
2013-07-08 17:46:00,97.5,34.2,29.70,WSW,238,5.0,18.0,11,0.00,,,0.00,HR-IXPWINDi_r2_v1.2.,2013-07-08 23:46:00,
2013-07-08 17:51:00,97.0,33.8,29.70,WNW,302,7.0,18.0,11,0.00,,,0.00,HR-IXPWINDi_r2_v1.2.,2013-07-08 23:51:00,
2013-07-08 17:56:00,96.5,35.6,29.70,WNW,285,8.0,14.0,12,0.00,,,0.00,HR-IXPWINDi_r2_v1.2.,2013-07-08 23:56:00,
2013-07-08 18:02:00,96.8,35.9,29.70,SW,225,3.0,12.0,12,0.00,,,0.00,HR-IXPWINDi_r2_v1.2.,2013-07-09 00:02:00,
2013-07-08 18:07:00,96.7,33.6,29.69,SW,228,3.0,12.0,11,0.00,,,0.00,HR-IXPWINDi_r2_v1.2.,2013-07-09 00:07:00,
2013-07-08 18:12:00,96.9,35.9,29.69,WSW,243,2.0,8.0,12,0.00,,,0.00,HR-IXPWINDi_r2_v1.2.,2013-07-09 00:12:00,
2013-07-08 18:18:00,96.5,35.6,29.69,West,281,6.0,10.0,12,0.00,,,0.00,HR-IXPWINDi_r2_v1.2.,2013-07-09 00:18:00,
2013-07-08 18:23:00,95.8,35.1,29.69,West,269,12.0,12.0,12,0.00,,,0.00,HR-IXPWINDi_r2_v1.2.,2013-07-09 00:23:00,
2013-07-08 18:28:00,95.3,36.7,29.69,SW,214,3.0,13.0,13,0.00,,,0.00,HR-IXPWINDi_r2_v1.2.,2013-07-09 00:28:00,
2013-07-08 18:33:00,95.3,34.7,29.69,SW,231,4.0,13.0,12,0.00,,,0.00,HR-IXPWINDi_r2_v1.2.,2013-07-09 00:33:00,
2013-07-08 18:38:00,95.6,36.9,29.69,WSW,256,5.0,10.0,13,0.00,,,0.00,HR-IXPWINDi_r2_v1.2.,2013-07-09 00:38:00,
2013-07-08 18:44:00,95.1,36.6,29.69,NW,319,4.0,15.0,13,0.00,,,0.00,HR-IXPWINDi_r2_v1.2.,2013-07-09 00:44:00,
2013-07-08 18:49:00,94.9,36.4,29.69,West,264,10.0,15.0,13,0.00,,,0.00,HR-IXPWINDi_r2_v1.2.,2013-07-09 00:49:00,
2013-07-08 18:54:00,95.1,36.6,29.69,NW,307,3.0,13.0,13,0.00,,,0.00,HR-IXPWINDi_r2_v1.2.,2013-07-09 00:54:00,
2013-07-08 19:00:00,95.5,36.9,29.69,SSW,194,4.0,13.0,13,0.00,,,0.00,HR-IXPWINDi_r2_v1.2.,2013-07-09 01:00:00,
2013-07-08 19:05:00,96.2,37.4,29.69,WNW,293,6.0,13.0,13,0.00,,,0.00,HR-IXPWINDi_r2_v1.2.,2013-07-09 01:05:00,
2013-07-08 19:10:00,95.9,37.2,29.69,West,266,2.0,10.0,13,0.00,,,0.00,HR-IXPWINDi_r2_v1.2.,2013-07-09 01:10:00,
2013-07-08 19:15:00,95.6,36.9,29.69,SW,232,4.0,10.0,13,0.00,,,0.00,HR-IXPWINDi_r2_v1.2.,2013-07-09 01:15:00,
2013-07-08 19:20:00,95.0,38.4,29.69,West,263,3.0,10.0,14,0.00,,,0.00,HR-IXPWINDi_r2_v1.2.,2013-07-09 01:20:00,
2013-07-08 19:25:00,94.8,36.3,29.69,WNW,300,2.0,11.0,13,0.00,,,0.00,HR-IXPWINDi_r2_v1.2.,2013-07-09 01:25:00,
2013-07-08 19:30:00,94.7,36.2,29.69,WNW,285,4.0,11.0,13,0.00,,,0.00,HR-IXPWINDi_r2_v1.2.,2013-07-09 01:30:00,
2013-07-08 19:35:00,94.9,36.4,29.69,WNW,284,7.0,10.0,13,0.00,,,0.00,HR-IXPWINDi_r2_v1.2.,2013-07-09 01:35:00,
2013-07-08 19:41:00,94.5,36.1,29.70,West,262,7.0,16.0,13,0.00,,,0.00,HR-IXPWINDi_r2_v1.2.,2013-07-09 01:41:00,
2013-07-08 19:46:00,93.9,37.5,29.70,WNW,293,2.0,16.0,14,0.00,,,0.00,HR-IXPWINDi_r2_v1.2.,2013-07-09 01:46:00,
2013-07-08 19:51:00,93.6,37.3,29.70,West,278,5.0,10.0,14,0.00,,,0.00,HR-IXPWINDi_r2_v1.2.,2013-07-09 01:51:00,
2013-07-08 19:56:00,93.2,36.9,29.70,WSW,243,3.0,9.0,14,0.00,,,0.00,HR-IXPWINDi_r2_v1.2.,2013-07-09 01:56:00,
2013-07-08 20:01:00,92.7,38.3,29.70,West,273,4.0,9.0,15,0.00,,,0.00,HR-IXPWINDi_r2_v1.2.,2013-07-09 02:01:00,
2013-07-08 20:07:00,92.3,38.0,29.70,West,276,3.0,7.0,15,0.00,,,0.00,HR-IXPWINDi_r2_v1.2.,2013-07-09 02:07:00,
2013-07-08 20:12:00,91.9,37.7,29.71,SW,228,2.0,6.0,15,0.00,,,0.00,HR-IXPWINDi_r2_v1.2.,2013-07-09 02:12:00,
2013-07-08 20:17:00,91.8,37.6,29.71,West,274,4.0,8.0,15,0.00,,,0.00,HR-IXPWINDi_r2_v1.2.,2013-07-09 02:17:00,
2013-07-08 20:22:00,91.9,37.7,29.71,WNW,297,3.0,8.0,15,0.00,,,0.00,HR-IXPWINDi_r2_v1.2.,2013-07-09 02:22:00,
2013-07-08 20:27:00,91.5,39.0,29.71,WNW,294,4.0,5.0,16,0.00,,,0.00,HR-IXPWINDi_r2_v1.2.,2013-07-09 02:27:00,
2013-07-08 20:32:00,90.9,38.5,29.71,West,278,3.0,6.0,16,0.00,,,0.00,HR-IXPWINDi_r2_v1.2.,2013-07-09 02:32:00,
2013-07-08 20:38:00,90.5,39.7,29.71,West,281,2.0,6.0,17,0.00,,,0.00,HR-IXPWINDi_r2_v1.2.,2013-07-09 02:38:00,
2013-07-08 20:43:00,90.2,39.5,29.71,West,278,1.0,6.0,17,0.00,,,0.00,HR-IXPWINDi_r2_v1.2.,2013-07-09 02:43:00,
2013-07-08 20:48:00,90.1,39.4,29.72,WNW,284,3.0,6.0,17,0.00,,,0.00,HR-IXPWINDi_r2_v1.2.,2013-07-09 02:48:00,
2013-07-08 20:53:00,89.8,40.6,29.72,West,270,2.0,5.0,18,0.00,,,0.00,HR-IXPWINDi_r2_v1.2.,2013-07-09 02:53:00,
2013-07-08 20:59:00,89.2,42.9,29.72,NNE,30,2.0,4.0,20,0.00,,,0.00,HR-IXPWINDi_r2_v1.2.,2013-07-09 02:59:00,
2013-07-08 21:04:00,87.8,45.4,29.73,NNE,26,1.0,2.0,23,0.00,,,0.00,HR-IXPWINDi_r2_v1.2.,2013-07-09 03:04:00,
2013-07-08 21:09:00,86.8,45.7,29.73,NNE,16,1.0,2.0,24,0.00,,,0.00,HR-IXPWINDi_r2_v1.2.,2013-07-09 03:09:00,
2013-07-08 21:14:00,86.1,46.2,29.73,NNE,15,1.0,2.0,25,0.00,,,0.00,HR-IXPWINDi_r2_v1.2.,2013-07-09 03:14:00,
2013-07-08 21:20:00,85.4,46.6,29.73,NNE,23,1.0,2.0,26,0.00,,,0.00,HR-IXPWINDi_r2_v1.2.,2013-07-09 03:20:00,
2013-07-08 21:25:00,84.8,47.1,29.73,NE,38,2.0,2.0,27,0.00,,,0.00,HR-IXPWINDi_r2_v1.2.,2013-07-09 03:25:00,
2013-07-08 21:30:00,84.3,46.7,29.74,NE,41,0.0,2.0,27,0.00,,,0.00,HR-IXPWINDi_r2_v1.2.,2013-07-09 03:30:00,
2013-07-08 21:35:00,83.9,47.3,29.74,NE,41,0.0,2.0,28,0.00,,,0.00,HR-IXPWINDi_r2_v1.2.,2013-07-09 03:35:00,
2013-07-08 21:41:00,83.6,48.0,29.74,NE,36,2.0,3.0,29,0.00,,,0.00,HR-IXPWINDi_r2_v1.2.,2013-07-09 03:41:00,
2013-07-08 21:46:00,83.3,46.8,29.75,North,356,1.0,3.0,28,0.00,,,0.00,HR-IXPWINDi_r2_v1.2.,2013-07-09 03:46:00,
2013-07-08 21:51:00,83.5,46.0,29.75,North,352,2.0,4.0,27,0.00,,,0.00,HR-IXPWINDi_r2_v1.2.,2013-07-09 03:51:00,
2013-07-08 21:56:00,83.7,46.2,29.75,NW,325,2.0,4.0,27,0.00,,,0.00,HR-IXPWINDi_r2_v1.2.,2013-07-09 03:56:00,
2013-07-08 22:08:00,84.2,44.6,29.75,WNW,288,1.0,2.0,25,0.00,,,0.00,HR-IXPWINDi_r2_v1.2.,2013-07-09 04:08:00,
2013-07-08 22:13:00,84.1,44.5,29.76,West,276,2.0,4.0,25,0.00,,,0.00,HR-IXPWINDi_r2_v1.2.,2013-07-09 04:13:00,
2013-07-08 22:18:00,84.3,45.7,29.76,WNW,290,1.0,4.0,26,0.00,,,0.00,HR-IXPWINDi_r2_v1.2.,2013-07-09 04:18:00,
2013-07-08 22:23:00,83.9,46.3,29.76,WNW,297,0.0,3.0,27,0.00,,,0.00,HR-IXPWINDi_r2_v1.2.,2013-07-09 04:23:00,
2013-07-08 22:28:00,83.6,45.1,29.76,WNW,297,1.0,2.0,26,0.00,,,0.00,HR-IXPWINDi_r2_v1.2.,2013-07-09 04:28:00,
2013-07-08 22:33:00,83.5,46.0,29.76,WNW,296,0.0,1.0,27,0.00,,,0.00,HR-IXPWINDi_r2_v1.2.,2013-07-09 04:33:00,
2013-07-08 22:39:00,83.2,46.7,29.76,WNW,297,0.0,1.0,28,0.00,,,0.00,HR-IXPWINDi_r2_v1.2.,2013-07-09 04:39:00,
2013-07-08 22:44:00,82.8,48.2,29.76,WNW,297,0.0,1.0,30,0.00,,,0.00,HR-IXPWINDi_r2_v1.2.,2013-07-09 04:44:00,
2013-07-08 22:49:00,82.3,47.7,29.76,WNW,297,0.0,1.0,30,0.00,,,0.00,HR-IXPWINDi_r2_v1.2.,2013-07-09 04:49:00,
2013-07-08 22:54:00,82.2,44.9,29.76,NW,309,2.0,4.0,27,0.00,,,0.00,HR-IXPWINDi_r2_v1.2.,2013-07-09 04:54:00,
2013-07-08 22:59:00,82.8,45.4,29.76,NW,315,3.0,4.0,27,0.00,,,0.00,HR-IXPWINDi_r2_v1.2.,2013-07-09 04:59:00,
2013-07-08 23:04:00,82.8,45.4,29.76,North,359,1.0,3.0,27,0.00,,,0.00,HR-IXPWINDi_r2_v1.2.,2013-07-09 05:04:00,
2013-07-08 23:10:00,83.0,45.6,29.76,NW,305,2.0,3.0,27,0.00,,,0.00,HR-IXPWINDi_r2_v1.2.,2013-07-09 05:10:00,
2013-07-08 23:15:00,82.6,47.1,29.76,North,356,1.0,3.0,29,0.00,,,0.00,HR-IXPWINDi_r2_v1.2.,2013-07-09 05:15:00,
2013-07-08 23:20:00,81.8,48.2,29.76,NNE,19,1.0,2.0,31,0.00,,,0.00,HR-IXPWINDi_r2_v1.2.,2013-07-09 05:20:00,
2013-07-08 23:25:00,81.0,47.5,29.76,West,266,0.0,2.0,31,0.00,,,0.00,HR-IXPWINDi_r2_v1.2.,2013-07-09 05:25:00,
2013-07-08 23:31:00,80.5,47.1,29.76,West,266,0.0,2.0,31,0.00,,,0.00,HR-IXPWINDi_r2_v1.2.,2013-07-09 05:31:00,
2013-07-08 23:36:00,80.2,46.8,29.76,West,266,1.0,1.0,31,0.00,,,0.00,HR-IXPWINDi_r2_v1.2.,2013-07-09 05:36:00,
2013-07-08 23:41:00,80.0,47.5,29.76,WNW,283,2.0,3.0,32,0.00,,,0.00,HR-IXPWINDi_r2_v1.2.,2013-07-09 05:41:00,
2013-07-08 23:46:00,79.6,47.9,29.77,WNW,286,2.0,4.0,33,0.00,,,0.00,HR-IXPWINDi_r2_v1.2.,2013-07-09 05:46:00,
2013-07-08 23:51:00,79.2,47.6,29.77,WNW,283,1.0,4.0,33,0.00,,,0.00,HR-IXPWINDi_r2_v1.2.,2013-07-09 05:51:00,
2013-07-08 23:57:00,78.6,47.1,29.77,WNW,290,3.0,4.0,33,0.00,,,0.00,HR-IXPWINDi_r2_v1.2.,2013-07-09 05:57:00,